Weather in Sovetskiy

Russia / Vologda Oblast     59°55′27″N   42°43′07″E
temp.,
°C
wind,
m/s
gust,
m/s
humid.,
%
clouds,
%
prec.,
mm/h
press.,
hPa
HPBL,
m
10 august, wed
wed1000:00+13n388280 0.0 1022168
03:00+13n2579100 0.0 1022151
06:00+13n378534 0.0 1023256
09:00+17nne356499 0.0 1023629
12:00+20nne3353100 0.0 10221211
15:00+19n336223 0.9 10221288
18:00+18nnw237195 0.7 1022551
21:00+12nnw22925 0.9 102313
11 august, thu
thu1100:00+11wnw11945 0.0 102410
03:00+10wnw11963 0.0 102413
06:00+12w13924 0.0 1025111
09:00+18w23625 0.0 1024641
12:00+21w35415 0.0 10241995
15:00+22wsw453818 0.0 10222203
18:00+20wsw375395 0.0 1021520
21:00+14wsw3977100 0.0 1022180
12 august, fri
fri1200:00+15sw31271100 0.0 1021286
03:00+13sw3117599 0.0 1021277
06:00+14sw3127699 0.0 1020339
09:00+19wsw5105731 0.0 1020698
12:00+23wsw694510 0.0 10181599
15:00+25w59468 0.0 10172152
18:00+21nw38673 0.1 1018716
21:00+17w39810 0.1 1019207
13 august, sat
sat1300:00+14wnw211915 0.0 1020245
03:00+12nw277956 0.0 1022157
06:00+12nw257766 0.0 1023151
09:00+18nnw23545 0.0 1024567
12:00+22nw24392 0.0 10241564
15:00+23nw35375 0.0 10231859
18:00+22nnw11577 0.0 102320
21:00+15sse117310 0.0 102411
14 august, sun
sun1400:00+13s118641 0.0 102411
03:00+13ssw229178 0.0 102333
06:00+15s2883100 0.1 1023225
09:00+18ssw3976100 0.1 1022361
12:00+23sw4758100 0.1 1021860
15:00+24wsw355884 0.1 10211155
18:00+20ssw2586100 1.4 1020101
21:00+18ssw2592100 1.5 1020101